Overview Statistics Trail Chart Weather Telemetry Raw packets
 

This is the latest recevied weather packets stored in our database for station/object W4UWO. If no packets are shown the sender has not sent any weather packets the latest 10 day(s).

<< 80 81 82 83 84 85 86 >>
Time Temp. Humidity Pressure Rain* Wind** Luminosity Snow
1788038110 33.89° C 36% 1019 hPa 0 mm - 478 W/m² -
1788037810 34.44° C 37% 1019.3 hPa 0 mm - 489 W/m² -
1788037510 34.44° C 38% 1019 hPa 0 mm - 501 W/m² -
1788037205 34.44° C 35% 1019 hPa 0 mm - 513 W/m² -
1788036904 34.44° C 37% 1019.1 hPa 0 mm - 534 W/m² -
1788036601 33.89° C 36% 1019.1 hPa 0 mm - 524 W/m² -
1788036296 33.33° C 36% 1019.2 hPa 0 mm - 543 W/m² -
1788035991 35° C 34% 1019.4 hPa 0 mm - 597 W/m² -
1788035690 35.56° C 33% 1019.3 hPa 0 mm - 602 W/m² -
1788035386 35.56° C 33% 1019.4 hPa 0 mm - 620 W/m² -
1788035082 35° C 33% 1019.5 hPa 0 mm - 632 W/m² -
1788034777 33.89° C 36% 1019.5 hPa 0 mm - 648 W/m² -
1788034473 34.44° C 34% 1019.7 hPa 0 mm - 669 W/m² -
1788034170 35.56° C 35% 1019.7 hPa 0 mm - 680 W/m² -
1788033868 34.44° C 33% 1019.7 hPa 0 mm - 688 W/m² -
1788033568 34.44° C 33% 1020 hPa 0 mm - 692 W/m² -
1788033263 34.44° C 33% 1019.9 hPa 0 mm - 703 W/m² -
1788032959 35° C 33% 1019.8 hPa 0 mm - 712 W/m² -
1788032658 35° C 33% 1019.9 hPa 0 mm - 724 W/m² -
1788032353 35° C 32% 1020 hPa 0 mm - 732 W/m² -
1788032054 35° C 32% 1019.9 hPa 0 mm - 681 W/m² -
1788031750 35° C 32% 1020 hPa 0 mm - 764 W/m² -
1788031449 35° C 34% 1020.2 hPa 0 mm - 780 W/m² -
1788031157 35° C 33% 1020.1 hPa 0 mm - 785 W/m² -
1788030843 34.44° C 36% 1020.2 hPa 0 mm - 795 W/m² -

* Rain latest hour (hover to see other rain measurements)
** Current wind speed in m/s (hover to see current wind gust speed)